Toronto Pearson, Ontario

11:05 PM EDT on July 23, 2019 (GMT -0400)
Toronto-Pearson International

Weather History for CYYZ - May, 2019

Change the Weather History Date:

Friday, May 3, 2019

  Actual Average Record
Temperature  
Mean Temperature 48 °F -  
Max Temperature 53 °F 66 °F 86 °F (2001)
Min Temperature 42 °F 44 °F 32 °F (2005)
Degree Days  
Heating Degree Days 18    
Moisture  
Dew Point 43 °F    
Average Humidity 87    
Maximum Humidity 93    
Minimum Humidity 71    
Precipitation  
Precipitation 0.43 in 0.09 in - ()
Sea Level Pressure  
Sea Level Pressure 30.04 in    
Wind  
Wind Speed 6 mph ()    
Max Wind Speed 14 mph    
Max Gust Speed -    
Visibility 9.1 miles    
Events Rain    
Averages and records for this station are not official NWS values.
T = Trace of Precipitation, MM = Missing Value Source: Averaged Metar Reports

Daily Weather History Graph

Daily Weather History Graph

Search for Another Location

Airport or City:

Astronomy

May. 03, 2019 Rise Set
Actual Time 6:08 AM EDT 8:23 PM EDT
Civil Twilight 5:36 AM EDT 8:54 PM EDT
Nautical Twilight 4:57 AM EDT 9:34 PM EDT
Astronomical Twilight 4:14 AM EDT 10:17 PM EDT
Moon 5:54 AM EDT (5/3) 7:04 PM EDT (5/3)
Length of Visible Light 15h 18m
Length of Day
14h 14m
Waning Crescent, 2% of the Moon is Illuminated
May 3
Waning Crescent
May 4
New
May 11
First Quarter
May 18
Full
May 26
Last Quarter

Hourly Weather History & Observations

Time (EDT) Temp. Windchill Dew Point Humidity Pressure Visibility Wind Dir Wind Speed Gust Speed Precip Events Conditions
12:00 AM 42.8 °F 38.6 °F 39.2 °F 87% 30.11 in 6.0 mi East 6.9 mph - N/A Rain Light Rain
12:40 AM 42.8 °F 39.3 °F 39.2 °F 87% 30.09 in 6.0 mi ENE 5.8 mph - N/A Rain Light Rain
1:00 AM 42.8 °F 38.0 °F 39.2 °F 87% 30.09 in 6.0 mi ENE 8.1 mph - N/A Rain Light Rain
1:29 AM 42.8 °F 41.1 °F 39.2 °F 87% 30.10 in 4.0 mi East 3.5 mph - N/A Rain Light Rain
2:00 AM 42 °F - 40 °F 88% 30.08 in 4 mi ENE 8.1 mph - - Rain Light Rain
2:00 AM 42.8 °F 38.0 °F 39.2 °F 87% 30.07 in 4.0 mi ENE 8.1 mph - N/A Rain Light Rain
2:20 AM 42.8 °F 38.0 °F 39.2 °F 87% 30.07 in 4.0 mi East 8.1 mph - N/A Rain Heavy Rain
3:47 AM 42.8 °F 38.0 °F 41.0 °F 93% 30.03 in 4.0 mi ENE 8.1 mph - N/A Rain Light Rain
4:00 AM 42.8 °F 38.6 °F 41.0 °F 93% 30.03 in 4.0 mi ENE 6.9 mph - N/A Rain Light Rain
5:00 AM 42 °F - 41 °F 93% 30.03 in 4 mi ESE 3.5 mph - -   Overcast
5:00 AM 42.8 °F 41.1 °F 41.0 °F 93% 30.03 in 4.0 mi East 3.5 mph - N/A Rain Light Rain
5:53 AM 42.8 °F 41.1 °F 41.0 °F 93% 30.03 in 4.0 mi ESE 3.5 mph - N/A Rain Light Rain
6:00 AM 42.8 °F 39.3 °F 41.0 °F 93% 30.03 in 4.0 mi SE 5.8 mph - N/A Rain Light Rain
7:00 AM 42.8 °F 39.3 °F 41.0 °F 93% 30.03 in 4.0 mi East 5.8 mph - N/A Rain Light Rain
8:00 AM 44 °F - 42 °F 89% 30.04 in 4 mi ENE 2.3 mph - - Rain Light Rain
8:00 AM 44.6 °F - 42.8 °F 93% 30.04 in 4.0 mi Calm Calm - N/A Rain Light Rain
8:21 AM 44.6 °F - 42.8 °F 93% 30.04 in 3.0 mi Calm Calm - N/A Rain Rain
9:00 AM 44.6 °F 43.1 °F 42.8 °F 93% 30.04 in 4.0 mi West 3.5 mph - N/A Rain Light Rain
9:47 AM 44.6 °F 41.4 °F 42.8 °F 93% 30.04 in 6.0 mi North 5.8 mph - N/A   Overcast
10:00 AM 46.4 °F 43.5 °F 44.6 °F 93% 30.04 in 10.0 mi North 5.8 mph - N/A   Overcast
11:00 AM 47 °F - 45 °F 88% 30.04 in 10 mi NNW 4.6 mph - -   Overcast
11:00 AM 46.4 °F 43.5 °F 44.6 °F 93% 30.04 in 10.0 mi NNW 5.8 mph - N/A   Overcast
11:13 AM 48.2 °F - 44.6 °F 87% 30.04 in 12.0 mi North 4.6 mph - N/A   Overcast
11:42 AM 48.2 °F - 46.4 °F 93% 30.03 in 12.0 mi Variable 2.3 mph - N/A Rain Light Rain Showers
12:00 PM 48.2 °F - 44.6 °F 87% 30.04 in 15.0 mi NW 6.9 mph - N/A   Overcast
1:00 PM 50.0 °F - 46.4 °F 87% 30.03 in 15.0 mi NNW 5.8 mph - N/A   Overcast
2:00 PM 51 °F - 47 °F 81% 30.04 in 15 mi North 9.2 mph - -   Partly Cloudy
3:00 PM 51.8 °F - 48.2 °F 88% 30.03 in 15.0 mi North 10.4 mph - N/A   Overcast
4:00 PM 51.8 °F - 46.4 °F 82% 30.02 in 15.0 mi NNW 9.2 mph - N/A   Overcast
5:00 PM 52 °F - 46 °F 71% 30.00 in 15 mi North 9.2 mph - -   Overcast
5:00 PM 51.8 °F - 46.4 °F 82% 30.00 in 15.0 mi NNW 11.5 mph - N/A   Overcast
6:00 PM 51.8 °F - 46.4 °F 82% 30.00 in 15.0 mi North 9.2 mph - N/A   Mostly Cloudy
7:00 PM 51.8 °F - 44.6 °F 76% 30.01 in 15.0 mi NNE 9.2 mph - N/A   Overcast
8:00 PM 50 °F - 44 °F 73% 30.02 in 15 mi North 12.7 mph - -   Overcast
8:00 PM 50.0 °F - 44.6 °F 82% 30.02 in 15.0 mi North 13.8 mph - N/A   Overcast
9:00 PM 48.2 °F - 42.8 °F 82% 30.04 in 15.0 mi North 11.5 mph - N/A   Overcast
9:22 PM 48.2 °F - 42.8 °F 82% 30.03 in 15.0 mi North 13.8 mph - N/A   Overcast
10:00 PM 46.4 °F 41.1 °F 42.8 °F 87% 30.03 in 15.0 mi North 11.5 mph - N/A   Overcast
10:14 PM 46.4 °F 41.1 °F 42.8 °F 87% 30.03 in 10.0 mi North 11.5 mph - N/A   Light Drizzle
11:00 PM 46 °F - 43 °F 84% 30.03 in 7 mi North 6.9 mph - -   Overcast
11:00 PM 46.4 °F 42.9 °F 42.8 °F 87% 30.03 in 8.0 mi North 6.9 mph - N/A   Light Drizzle
11:27 PM 46.4 °F 41.9 °F 42.8 °F 87% 30.01 in 8.0 mi North 9.2 mph - N/A   Light Drizzle
11:54 PM 46.4 °F 42.4 °F 42.8 °F 87% 30.02 in 12.0 mi North 8.1 mph - N/A   Overcast